Regional Weather Roundup
Issued by NWS

Home | Current Version | Previous Version | Graphics & Text | Print | Product List | Glossary On
Versions: 1 2 3 4 5 6 7 8 9 10 11 12 13 14 15 16 17 18 19 20 21 22 23 24 25 26 27 28 29 30 31 32 33 34 35 36 37 38 39 40 41 42 43 44 45 46 47 48 49 50
248
ASUS43 KDTX 242210
RWRMI
MICHIGAN HOURLY REGIONAL WEATHER ROUNDUP
NATIONAL WEATHER SERVICE DETROIT/PONTIAC MI
600 PM EDT SUN SEP 24 2017

NOTE: "FAIR" INDICATES FEW OR NO CLOUDS BELOW 12,000 FEET WITH NO
SIGNIFICANT WEATHER AND/OR OBSTRUCTION TO VISIBILITY.

MIZ047>049-052>055-059>063-066>070-074>076-081>083-242300-
SOUTHEAST LOWER MICHIGAN

CITY           SKY/WX    TMP DP  RH WIND       PRES   REMARKS
ADRIAN         SUNNY     88  60  38 SE7       30.08S
ALMA           SUNNY     91  46  21 S13       30.06S
ANN ARBOR      SUNNY     87  61  41 E8        30.08S
BAD AXE        SUNNY     86  64  46 SE6       30.09F
CARO           SUNNY     89  60  38 SE5       30.08S
DETROIT CITY   SUNNY     85  66  53 E8        30.09S
DETROIT        MOSUNNY   86  65  49 SE6       30.09S
FLINT          SUNNY     88  59  37 S9G28     30.08S
GROSSE ILE     SUNNY     83  69  62 CALM      30.07F
HILLSDALE      PTSUNNY   88  54  31 SE7       30.08F
HOWELL         SUNNY     89  54  30 SE10      30.09S

CITY           SKY/WX    TMP DP  RH WIND       PRES   REMARKS
JACKSON        SUNNY     89  53  29 E8        30.08S
LAMBERTVILLE   SUNNY     83  63  49 E7        30.08S
LANSING        SUNNY     89  57  33 SE8       30.07S
LAPEER         FAIR      87  60  39 SE7       30.10S
MASON          SUNNY     91  56  31 SE8       30.08S
MONROE         SUNNY     84  63  47 E5        30.07F
MT. CLEMENS    MOSUNNY   84  68  59 S5        30.08S
PONTIAC        MOSUNNY   88  62  41 SE10      30.09S
PORT HOPE        N/A     83  65  54 SE7       30.07F
PORT HURON     SUNNY     88  66  48 CALM      30.09S HX  90
TRI CITIES     SUNNY     92  57  30 S9        30.07S HX  90
MIDLAND        FAIR      92  56  29 S8        30.04F HX  90
TROY           SUNNY     88  62  42 SE5       30.11S
SAGINAW HB     SUNNY     90  55  31 S9        30.06S
$$
MIZ043>046-050>051-056>058-064>065-071>073-077>080-242300-
SOUTHWEST LOWER MICHIGAN

CITY           SKY/WX    TMP DP  RH WIND       PRES   REMARKS
BATTLE CREEK   SUNNY     89  56  32 S9        30.08S
BENTON HARBOR  SUNNY     89  54  30 SE7       30.03S
BIG RAPIDS     SUNNY     89  49  24 S9        30.05S
COLDWATER      SUNNY     87  52  29 SE6       30.07F
FREMONT        FAIR      87  58  37 W8        30.05S
HOLLAND        SUNNY     88  59  37 NW5       30.05S
GRAND RAPIDS   MOSUNNY   92  54  27 S14       30.05S HX  90
IONIA          FAIR      92  52  25 S8        30.05S
KALAMAZOO      SUNNY     90  52  27 SE6       30.06S
LUDINGTON      SUNNY     82  62  50 SW9       30.04S
MARSHALL       SUNNY     88  55  32 S7        30.07S
MOUNT PLEASANT SUNNY     93  51  23 SE9       30.05S HX  90
MUSKEGON       MOSUNNY   87  55  33 W6        30.04F
SOUTH HAVEN    SUNNY     88  59  38 NW5       30.03F
$$
MIZ016>042-242300-
NORTHERN LOWER MICHIGAN

CITY           SKY/WX    TMP DP  RH WIND       PRES   REMARKS
ALPENA         SUNNY     88  68  51 S8        30.06S HX  91
BELLAIRE       SUNNY     89  63  42 CALM      30.02S HX  90
CADILLAC       SUNNY     91  49  23 S7        30.06F
CHARLEVOIX     SUNNY     80  64  58 N3        30.06S
FRANKFORT      SUNNY     80  65  58 CALM      30.04S
GAYLORD        SUNNY     87  57  35 S9        30.07F
GRAYLING       SUNNY     88  56  34 S9        30.08S
HARBOR SPRINGS SUNNY     79  66  64 SW3       30.03S
HOUGHTON LAKE  SUNNY     88  59  37 S7        30.08F
MANISTEE       SUNNY     85  65  51 SW9       30.03S
OSCODA         SUNNY     82  60  48 SE6       30.08S
PELLSTON       SUNNY     87  66  49 E12       30.04S
ROGERS CITY    SUNNY     88  61  39 S6        30.05S
TRAVERSE CITY  MOSUNNY   85  66  53 NE7       30.00F
$$
MIZ007>008-015-242300-
EASTERN UPPER MICHIGAN

CITY           SKY/WX    TMP DP  RH WIND       PRES   REMARKS
KINROSS        SUNNY     85  67  54 VRB5      30.05S
MACKINAC ISLAN SUNNY     80  63  55 SE5       30.05S
NEWBERRY       SUNNY     80  66  64 S10       30.03S
S. S. MARIE    SUNNY     86  67  52 SW5       30.03S
MUNISING         N/A     86  68  54 S7        29.97F
$$
MIZ004>006-011>014-085-242300-
CENTRAL UPPER MICHIGAN

CITY           SKY/WX    TMP DP  RH WIND       PRES   REMARKS
MANISTIQUE     SUNNY     72  65  81 S7        30.02F
ESCANABA       SUNNY     77  68  73 S8        30.00S
MENOMINEE      SUNNY     82  67  60 S10       29.99S
SAWYER-GWINN   SUNNY     86  63  45 SW14      29.99F
$$
MIZ001>003-009>011-084-242300-
WESTERN UPPER MICHIGAN

CITY           SKY/WX    TMP DP  RH WIND       PRES   REMARKS
IRON MOUNTAIN  SUNNY     84  64  50 S9        29.98F
HOUGHTON       SUNNY     87  62  43 S8        29.92F
COPPER HARBOR    N/A     84  63  49 SW5       29.91F
IRONWOOD       SUNNY     86  57  37 SW16G24   29.92F
$$

ABBREVIATIONS USED IN REMARKS
   TC - TEMPERATURE IN CELSIUS
  WCI - WIND CHILL INDEX
   HX - HEAT INDEX
  VSB - VISIBILITY





USA.gov is the U.S. government's official web portal to all federal, state and local government web resources and services.